Page, AZ

6:58 PM MDT on March 27, 2017 (GMT -0600)
Page Municipal

Weather History for KPGA - August, 2013

Change the Weather History Date:

Monday, August 19, 2013

  Actual Average Record
Temperature  
Mean Temperature 84 °F -  
Max Temperature 98 °F 91 °F 102 °F (2002)
Min Temperature 71 °F 66 °F 57 °F (1965)
Cooling Degree Days 20    
Growing Degree Days 34 (Base 50)    
Moisture  
Dew Point 48 °F    
Average Humidity 29    
Maximum Humidity 51    
Minimum Humidity 10    
Precipitation  
Precipitation 0.00 in - - ()
Sea Level Pressure  
Sea Level Pressure 29.87 in    
Wind  
Wind Speed 4 mph (SW)    
Max Wind Speed 9 mph    
Max Gust Speed 20 mph    
Visibility 10 miles    
Events      
Averages and records for this station are not official NWS values.
T = Trace of Precipitation, MM = Missing Value Source: NWS Daily Summary

Daily Weather History Graph

Daily Weather History Graph

Search for Another Location

Airport or City:

Trip Planner

Search our weather history database for the weather conditions in past years. The results will help you decide how hot, cold, wet, or windy it might be!

Date:

Astronomy

Aug. 19, 2013 Rise Set
Actual Time 5:46 AM MST 7:11 PM MST
Civil Twilight 5:19 AM MST 7:38 PM MST
Nautical Twilight 4:46 AM MST 8:11 PM MST
Astronomical Twilight 4:11 AM MST 8:45 PM MST
Moon 6:05 PM MST (8/19) 4:10 AM MST (8/19)
Length of Visible Light 14h 19m
Length of Day
13h 25m
Waxing Gibbous, 98% of the Moon is Illuminated
Aug 19
Waxing Gibbous
Aug 20
Full
Aug 28
Last Quarter
Sep 5
New
Sep 12
First Quarter

Hourly Weather History & Observations

Time (MST) Temp. Dew Point Humidity Pressure Visibility Wind Dir Wind Speed Gust Speed Precip Events Conditions
12:53 AM 79.0 °F 46.9 °F 32% 29.90 in 10.0 mi SW 3.5 mph - N/A   Clear
1:53 AM 77.0 °F 48.9 °F 37% 29.89 in 10.0 mi NE 3.5 mph - N/A   Clear
2:53 AM 75.9 °F 50.0 °F 40% 29.89 in 10.0 mi Calm Calm - N/A   Clear
3:53 AM 77.0 °F 48.9 °F 37% 29.89 in 10.0 mi North 6.9 mph - N/A   Clear
4:53 AM 73.0 °F 51.1 °F 46% 29.91 in 10.0 mi ESE 4.6 mph - N/A   Clear
5:53 AM 71.1 °F 52.0 °F 51% 29.94 in 10.0 mi SSE 4.6 mph - N/A   Clear
6:53 AM 75.0 °F 51.1 °F 43% 29.96 in 10.0 mi SE 5.8 mph - N/A   Clear
7:53 AM 79.0 °F 50.0 °F 36% 29.97 in 10.0 mi Calm Calm - N/A   Clear
8:53 AM 82.0 °F 51.1 °F 34% 29.96 in 10.0 mi Calm Calm - N/A   Clear
9:53 AM 84.0 °F 50.0 °F 31% 29.95 in 10.0 mi NNE 3.5 mph - N/A   Clear
10:53 AM 87.1 °F 50.0 °F 28% 29.94 in 10.0 mi NE 3.5 mph - N/A   Clear
11:53 AM 90.0 °F 51.1 °F 26% 29.90 in 10.0 mi Variable 3.5 mph - N/A   Clear
12:53 PM 93.0 °F 48.9 °F 22% 29.88 in 10.0 mi ENE 4.6 mph - N/A   Clear
1:53 PM 95.0 °F 48.0 °F 20% 29.84 in 10.0 mi NNE 6.9 mph - N/A   Clear
2:53 PM 96.1 °F 46.0 °F 18% 29.81 in 10.0 mi Calm Calm - N/A   Clear
3:53 PM 96.1 °F 46.0 °F 18% 29.79 in 10.0 mi West 9.2 mph 19.6 mph N/A   Clear
4:53 PM 95.0 °F 45.0 °F 18% 29.79 in 10.0 mi Variable 4.6 mph - N/A   Clear
5:53 PM 93.0 °F 43.0 °F 18% 29.79 in 10.0 mi West 4.6 mph - N/A   Clear
6:53 PM 91.0 °F 44.1 °F 20% 29.80 in 10.0 mi WSW 8.1 mph - N/A   Clear
7:53 PM 89.1 °F 45.0 °F 22% 29.81 in 10.0 mi WSW 6.9 mph - N/A   Clear
8:53 PM 87.1 °F 46.9 °F 25% 29.83 in 10.0 mi WSW 3.5 mph - N/A   Clear
9:53 PM 86.0 °F 46.9 °F 26% 29.84 in 10.0 mi West 4.6 mph - N/A   Clear
10:53 PM 80.1 °F 50.0 °F 35% 29.85 in 10.0 mi Calm Calm - N/A   Clear
11:53 PM 79.0 °F 50.0 °F 36% 29.86 in 10.0 mi SE 5.8 mph - N/A   Clear